Torna al catalogo

STARLINK-11702

AttivoComunicazioniVLEO
NORAD 63752·PAYLOAD·🇺🇸 United States

Lanciato Apr 29, 2025 da Cape Canaveral Space Force Station

Loading…

Prossimi Passaggi (prossime 24 ore)

TLE

AggiornatoSource: CelesTrak SupGP

Epoca: Sep 15, 2026, 02:39 UTC

1 63752C 25089B   26258.11090278 -.00038566  00000+0 -29941-3 0  2583
2 63752  43.0005 230.4159 0001425 268.1259 221.1672 15.70868514    13

Traccia STARLINK-11702 in tempo reale con AllMySat

Download on the App Store